Starlink 1663

operational
NORAD ID: 46535 Int'l Des: 2020-070 Owner: SPXS Country: US Constellation: starlink
LEOCIRCULARSTARLINK_TYPE

About Starlink 1663

Description loading...

Live Position

Loading 3D Globe...

Upcoming Passes

Altitude History

Altitude vs Time

uPlot chart will show altitude changes over time

Two-Line Element Set

1 46535U 20070D 25306.48988074 .00071587 00000-0 20569-2 0 9998
2 46535 53.0561 24.9604 0002388 11.7790 348.3267 15.35195012280360
Epoch: Nov 2, 2025 • Age: 30 hours

Current Status

Altitude 461.4 km
Velocity 7.64 km/s
Sub-Earth Point 16.96°N, 129.36°W
Launch Date Oct 6, 2020
Age 5 years
Type internet

Technical Details

Classification Payload
Mass 260.00 kg
Dry Mass 248.00 kg
Total Mass 260.00 kg
Length 0.20 m
Diameter 2.80 m
Span 9.00 m
Shape Box + pan
Manufacturer SPXS
Bus Type Starlink
Phase Status In Orbit
Owner/State SPXS/US

Large Constellations

Loading constellations...